Location: San Antonio
(29.4240°N, 98.4930°W)
Time: 06:47:24
(UTC-05:00)

ISS - All Passes

Search period start: 03 June 2015 00:00
Search period end: 13 June 2015 00:00
Orbit: 398 x 404 km, 51.6° (Epoch: 03 June)

Date Brightness Start Highest point End Pass type
(mag) Time Alt. Az. Time Alt. Az. Time Alt. Az.
03 Jun - 04:51:03 10° NNW 04:54:13 49° NE 04:57:23 10° ESE visible
03 Jun - 19:49:43 10° S 19:52:31 28° SE 19:55:20 10° ENE daylight
03 Jun - 21:26:39 10° W 21:28:57 18° NW 21:31:12 10° N visible
04 Jun - 03:58:12 10° NNW 04:00:50 23° NE 04:03:30 10° E visible
04 Jun - 05:34:38 10° WNW 05:37:10 21° SW 05:39:39 10° S visible
04 Jun - 18:58:02 10° SSE 18:59:20 12° SE 19:00:45 10° E daylight
04 Jun - 20:32:30 10° WSW 20:35:31 35° NW 20:38:32 10° NNE daylight
05 Jun - 03:05:59 10° N 03:07:19 12° NE 03:08:45 10° ENE visible
05 Jun - 04:40:48 10° NW 04:43:58 50° SW 04:47:08 10° SSE night (unlit)
05 Jun - 19:38:58 10° SW 19:42:11 89° WNW 19:45:25 10° NE daylight
06 Jun - 03:47:29 10° NW 03:50:42 61° NE 03:53:55 10° SE night (unlit)
06 Jun - 18:45:59 10° SSW 18:48:56 34° SE 18:51:55 10° ENE daylight
06 Jun - 20:23:25 10° WNW 20:25:27 15° NW 20:27:25 10° N daylight
07 Jun - 02:54:30 10° NNW 02:57:19 26° NE 03:00:09 10° ESE night (unlit)
07 Jun - 04:31:21 10° W 04:33:35 17° SW 04:35:45 10° S night (unlit)
07 Jun - 17:53:53 10° SSE 17:55:44 15° SE 17:57:42 10° E daylight
07 Jun - 19:29:04 10° WSW 19:31:57 29° NW 19:34:51 10° NNE daylight
08 Jun - 02:02:02 10° N 02:03:48 14° NE 02:05:39 10° ENE night (unlit)
08 Jun - 03:37:18 10° WNW 03:40:22 40° SW 03:43:25 10° SSE night (unlit)
08 Jun - 18:35:22 10° SW 18:38:34 71° NW 18:41:48 10° NE daylight
09 Jun - 02:43:50 10° NW 02:47:05 77° NE 02:50:20 10° SE night (unlit)
09 Jun - 17:42:13 10° SSW 17:45:17 42° SE 17:48:22 10° ENE daylight
09 Jun - 19:20:11 10° WNW 19:21:53 13° NW 19:23:29 10° N daylight
10 Jun - 01:50:45 10° NNW 01:53:42 31° NE 01:56:39 10° ESE night (unlit)
10 Jun - 03:28:04 10° W 03:29:55 14° SW 03:31:39 10° SSW night (unlit)
10 Jun - 16:49:48 10° S 16:52:02 18° SE 16:54:21 10° E daylight
10 Jun - 18:25:34 10° W 18:28:19 25° NW 18:31:03 10° NNE daylight
11 Jun - 00:58:06 10° N 01:00:11 16° NE 01:02:20 10° ENE visible
11 Jun - 02:33:43 10° WNW 02:36:40 32° SW 02:39:36 10° SSE night (unlit)
11 Jun - 17:31:43 10° SW 17:34:54 57° NW 17:38:04 10° NE daylight
12 Jun - 01:40:08 10° NW 01:43:23 85° SW 01:46:37 10° SE night (unlit)
12 Jun - 16:38:24 10° SSW 16:41:33 54° SE 16:44:43 10° NE daylight
12 Jun - 18:17:00 10° NW 18:18:13 11° NW 18:19:20 10° NNW daylight
